Regional Weather Roundup
Issued by NWS Sioux Falls, SD

Home | Current Version | Previous Version | Text Only | Print | Product List | Glossary Off
Versions: 1 2 3 4 5 6 7 8 9 10 11 12 13 14 15 16 17 18 19 20 21 22 23 24 25 26 27 28 29 30 31 32 33 34 35 36 37 38 39 40 41 42 43 44 45 46 47 48 49 50

000
ASUS43 KFSD 201010
RWRFSD

WEATHER ROUNDUP FOR SE SOUTH DAKOTA/SW MINNESOTA/NW IOWA
NATIONAL WEATHER SERVICE SIOUX FALLS SD
400 AM CST FRI JAN 20 2017

NOTE: "FAIR" INDICATES FEW OR NO CLOUDS BELOW 12,000 FEET WITH NO
SIGNIFICANT WEATHER AND OR OBSTRUCTIONS TO VISIBILITY.


SDZ038>040-050-052>070-201100-
SOUTHEAST SOUTH DAKOTA

CITY           SKY/WX    TMP DP  RH WIND       PRES   REMARKS
BROOKINGS      CLOUDY    35  34  96 SE10      29.51F FOG     WCI  27
CHAMBERLAIN    CLOUDY    37  35  96 S7        29.43S
HURON          CLOUDY    37  37 100 SE9       29.46F
MADISON        CLOUDY    34  34 100 S8          N/A  WCI  27
MITCHELL       CLOUDY    38  38 100 S8        29.47F
SIOUX FALLS    CLOUDY    37  37 100 S7        29.52F FOG
WINNER         FAIR      33  30  88 SW9       29.41F WCI  25
YANKTON        CLOUDY    37  36  93 SE9       29.50F
$$

MNZ071-072-080-081-089-090-097-098-201100-
SOUTHWEST MINNESOTA

CITY           SKY/WX    TMP DP  RH WIND       PRES   REMARKS
FAIRMONT       MIX PCPN  33  33 100 SE7       29.62S FOG     WCI  27
JACKSON        FOG       32  32 100 SE9       29.60R VSB 1/2 WCI  24
LUVERNE        CLOUDY    34  34 100 CALM      29.55F FOG
MARSHALL       CLOUDY    34  34 100 SE9       29.58R FOG     WCI  26
MONTEVIDEO     FOG       34  34 100 S7        29.59S VSB 1/4 WCI  28
PIPESTONE      CLOUDY    36  36 100 S3        29.53F FOG
REDWOOD FALLS  FOG       34  32  92 E7        29.60R VSB 3/4 WCI  28
TRACY          FOG       35  35 100 SE3       29.58S VSB 1
WINDOM         FOG       34  34 100 SE7       29.59R VSB 1/2 WCI  28
WORTHINGTON    FOG       35  34  96 SE5       29.57S VSB 1/4
$$

IAZ001>003-012>014-020>022-031-032-NEZ013-014-SDZ071-201100-
NORTHWEST IOWA

CITY           SKY/WX    TMP DP  RH WIND       PRES   REMARKS
CHEROKEE       CLOUDY    36  36 100 CALM      29.58S FOG
DENISON        FOG       37  37 100 CALM      29.57F VSB 3/4
ESTHERVILLE    FOG       32  32 100 SE5       29.60S VSB 1/2 WCI  27
LE MARS        CLOUDY    37  37 100 SE6       29.56F FOG
ORANGE CITY    FOG       36  36 100 SE3       29.55F VSB 1/4
SHELDON        CLOUDY    36  36 100 SE5       29.55F FOG
SIOUX CITY     FOG       38  37  97 SE7       29.56F VSB 3/4
SPENCER        CLOUDY    35  35 100 E3        29.58F
STORM LAKE     FOG       36  36 100 SW5       29.58S VSB 1/4
$$

ABBREVIATIONS USED IN REMARKS
   TC - TEMPERATURE IN CELSIUS
  WCI - WIND CHILL INDEX
   HX - HEAT INDEX
  VSB - VISIBILITY




USA.gov is the U.S. government's official web portal to all federal, state and local government web resources and services.